Tracking 29089 objects as of 12-Jul-2024
HD Live streaming from Space Station
objects crossing your sky now

AALTO 1

Track AALTO 1 now!
10-day predictions
AALTO 1 is classified as:


NORAD ID: 42775
Int'l Code: 2017-036L
Perigee: 349.1 km
Apogee: 358.7 km
Inclination: 97.1 °
Period: 91.5 minutes
Semi major axis: 6724 km
RCS: Unknown
Launch date: June 23, 2017
Source: (FIN)
Launch site: SRIHARIKOTA (SRI)

Uplink (MHz):
Downlink (MHz): 437.220/2402.000
Beacon (MHz): 437.220
Mode: 9600bps GFSK CW
Call sign: OH2A1S
Status: Active

Your satellite tracking list
Your tracking list is empty




NASA's NSSDC Master Catalog

Two Line Element Set (TLE):
1 42775U 17036L   24193.61185112  .00134656  00000-0  92529-3 0  9991
2 42775  97.0981 223.6573 0007142 126.0043 234.1885 15.74244189392942
Source of the keplerian elements: AMSAT